Location: Seattle
(47.6064°N, 122.3308°W)
Time: 04:36:51
(UTC-08:00)

N. Korean satellite - Pass Details

Date: 06 December 2022
Orbit: 407 x 441 km, 97.3° (Epoch: 05 February)

Event Time Altitude Azimuth Distance (km) Brightness Sun altitude
Rises 17:04:37 0° 187° (S) 2,459 10.6 -7.6°
Reaches altitude 10° 17:06:46 10° 197° (SSW) 1,600 9.8 -8.0°
Maximum altitude 17:09:55 33° 263° (W) 799 8.5 -8.5°
Drops below altitude 10° 17:13:08 10° 329° (NNW) 1,635 9.3 -9.0°
Sets 17:15:21 0° 340° (NNW) 2,521 10.2 -9.3°
